Year,Month,Day,Hour,Minute,Value (Times are PST for temperature in C)
2017,09,16,00,00,12.90
2017,09,16,00,01,13.00
2017,09,16,00,02,13.00
2017,09,16,00,03,13.00
2017,09,16,00,04,13.00
2017,09,16,00,05,13.10
2017,09,16,00,06,13.10
2017,09,16,00,07,13.10
2017,09,16,00,08,13.10
2017,09,16,00,09,13.10
2017,09,16,00,10,13.10
2017,09,16,00,11,13.10
2017,09,16,00,12,13.10
2017,09,16,00,13,13.00
2017,09,16,00,14,13.00
2017,09,16,00,15,12.90
2017,09,16,00,16,12.90
2017,09,16,00,17,12.90
2017,09,16,00,18,12.80
2017,09,16,00,19,12.80
2017,09,16,00,20,12.80
2017,09,16,00,21,12.80
2017,09,16,00,22,12.80
2017,09,16,00,23,12.80
2017,09,16,00,24,12.80
2017,09,16,00,25,12.80
2017,09,16,00,26,12.80
2017,09,16,00,27,12.80
2017,09,16,00,28,12.70
2017,09,16,00,29,12.70
2017,09,16,00,30,12.70
2017,09,16,00,31,12.70
2017,09,16,00,32,12.60
2017,09,16,00,33,12.60
2017,09,16,00,34,12.60
2017,09,16,00,35,12.50
2017,09,16,00,36,12.50
2017,09,16,00,37,12.40
2017,09,16,00,38,12.40
2017,09,16,00,39,12.40
2017,09,16,00,40,12.40
2017,09,16,00,41,12.40
2017,09,16,00,42,12.30
2017,09,16,00,43,12.30
2017,09,16,00,44,12.30
2017,09,16,00,45,12.30
2017,09,16,00,46,12.20
2017,09,16,00,47,12.20
2017,09,16,00,48,12.20
2017,09,16,00,49,12.20
2017,09,16,00,50,12.20
2017,09,16,00,51,12.20
2017,09,16,00,52,12.20
2017,09,16,00,53,12.20
2017,09,16,00,54,12.20
2017,09,16,00,55,12.10
2017,09,16,00,56,12.10
2017,09,16,00,57,12.10
2017,09,16,00,58,12.00
2017,09,16,00,59,12.00
2017,09,16,01,00,11.90
2017,09,16,01,01,11.90
2017,09,16,01,02,11.90
2017,09,16,01,03,11.90
2017,09,16,01,04,11.90
2017,09,16,01,05,11.90
2017,09,16,01,06,11.90
2017,09,16,01,07,11.90
2017,09,16,01,08,11.90
2017,09,16,01,09,11.90
2017,09,16,01,10,11.90
2017,09,16,01,11,11.90
2017,09,16,01,12,11.90
2017,09,16,01,13,11.90
2017,09,16,01,14,11.90
2017,09,16,01,15,11.90
2017,09,16,01,16,11.90
2017,09,16,01,17,11.90
2017,09,16,01,18,11.90
2017,09,16,01,19,11.90
2017,09,16,01,20,11.90
2017,09,16,01,21,11.90
2017,09,16,01,22,11.90
2017,09,16,01,23,11.90
2017,09,16,01,24,11.80
2017,09,16,01,25,11.80
2017,09,16,01,26,11.80
2017,09,16,01,27,11.80
2017,09,16,01,28,11.80
2017,09,16,01,29,11.80
2017,09,16,01,30,11.80
2017,09,16,01,31,11.80
2017,09,16,01,32,11.80
2017,09,16,01,33,11.80
2017,09,16,01,34,11.80
2017,09,16,01,35,11.80
2017,09,16,01,36,11.80
2017,09,16,01,37,11.80
2017,09,16,01,38,11.80
2017,09,16,01,39,11.80
2017,09,16,01,40,11.70
2017,09,16,01,41,11.70
2017,09,16,01,42,11.70
2017,09,16,01,43,11.70
2017,09,16,01,44,11.70
2017,09,16,01,45,11.70
2017,09,16,01,46,11.60
2017,09,16,01,47,11.60
2017,09,16,01,48,11.60
2017,09,16,01,49,11.60
2017,09,16,01,50,11.60
2017,09,16,01,51,11.60
2017,09,16,01,52,11.50
2017,09,16,01,53,11.50
2017,09,16,01,54,11.50
2017,09,16,01,55,11.50
2017,09,16,01,56,11.40
2017,09,16,01,57,11.40
2017,09,16,01,58,11.40
2017,09,16,01,59,11.40
2017,09,16,02,00,11.40
2017,09,16,02,01,11.40
2017,09,16,02,02,11.40
2017,09,16,02,03,11.30
2017,09,16,02,04,11.30
2017,09,16,02,05,11.30
2017,09,16,02,06,11.30
2017,09,16,02,07,11.30
2017,09,16,02,08,11.20
2017,09,16,02,09,11.20
2017,09,16,02,10,11.20
2017,09,16,02,11,11.20
2017,09,16,02,12,11.20
2017,09,16,02,13,11.20
2017,09,16,02,14,11.10
2017,09,16,02,15,11.10
2017,09,16,02,16,11.10
2017,09,16,02,17,11.10
2017,09,16,02,18,11.00
2017,09,16,02,19,11.00
2017,09,16,02,20,11.00
2017,09,16,02,21,10.90
2017,09,16,02,22,10.90
2017,09,16,02,23,10.90
2017,09,16,02,24,10.90
2017,09,16,02,25,10.80
2017,09,16,02,26,10.80
2017,09,16,02,27,10.80
2017,09,16,02,28,10.80
2017,09,16,02,29,10.80
2017,09,16,02,30,10.80
2017,09,16,02,31,10.80
2017,09,16,02,32,10.80
2017,09,16,02,33,10.80
2017,09,16,02,34,10.80
2017,09,16,02,35,10.70
2017,09,16,02,36,10.70
2017,09,16,02,37,10.70
2017,09,16,02,38,10.70
2017,09,16,02,39,10.70
2017,09,16,02,40,10.70
2017,09,16,02,41,10.70
2017,09,16,02,42,10.60
2017,09,16,02,43,10.60
2017,09,16,02,44,10.60
2017,09,16,02,45,10.60
2017,09,16,02,46,10.60
2017,09,16,02,47,10.50
2017,09,16,02,48,10.50
2017,09,16,02,49,10.50
2017,09,16,02,50,10.50
2017,09,16,02,51,10.40
2017,09,16,02,52,10.40
2017,09,16,02,53,10.40
2017,09,16,02,54,10.40
2017,09,16,02,55,10.40
2017,09,16,02,56,10.40
2017,09,16,02,57,10.40
2017,09,16,02,58,10.40
2017,09,16,02,59,10.40
2017,09,16,03,00,10.50
2017,09,16,03,01,10.50
2017,09,16,03,02,10.60
2017,09,16,03,03,10.60
2017,09,16,03,04,10.60
2017,09,16,03,05,10.60
2017,09,16,03,06,10.60
2017,09,16,03,07,10.70
2017,09,16,03,08,10.70
2017,09,16,03,09,10.70
2017,09,16,03,10,10.70
2017,09,16,03,11,10.70
2017,09,16,03,12,10.70
2017,09,16,03,13,10.60
2017,09,16,03,14,10.70
2017,09,16,03,15,10.60
2017,09,16,03,16,10.70
2017,09,16,03,17,10.60
2017,09,16,03,18,10.60
2017,09,16,03,19,10.60
2017,09,16,03,20,10.60
2017,09,16,03,21,10.60
2017,09,16,03,22,10.60
2017,09,16,03,23,10.50
2017,09,16,03,24,10.50
2017,09,16,03,25,10.50
2017,09,16,03,26,10.50
2017,09,16,03,27,10.40
2017,09,16,03,28,10.40
2017,09,16,03,29,10.40
2017,09,16,03,30,10.40
2017,09,16,03,31,10.40
2017,09,16,03,32,10.30
2017,09,16,03,33,10.30
2017,09,16,03,34,10.30
2017,09,16,03,35,10.30
2017,09,16,03,36,10.30
2017,09,16,03,37,10.20
2017,09,16,03,38,10.20
2017,09,16,03,39,10.20
2017,09,16,03,40,10.20
2017,09,16,03,41,10.10
2017,09,16,03,42,10.10
2017,09,16,03,43,10.10
2017,09,16,03,44,10.10
2017,09,16,03,45,10.10
2017,09,16,03,46,10.10
2017,09,16,03,47,10.10
2017,09,16,03,48,10.10
2017,09,16,03,49,10.10
2017,09,16,03,50,10.10
2017,09,16,03,51,10.20
2017,09,16,03,52,10.20
2017,09,16,03,53,10.20
2017,09,16,03,54,10.20
2017,09,16,03,55,10.20
2017,09,16,03,56,10.10
2017,09,16,03,57,10.10
2017,09,16,03,58,10.10
2017,09,16,03,59,10.10
2017,09,16,04,00,10.10
2017,09,16,04,01,10.10
2017,09,16,04,02,10.10
2017,09,16,04,03,10.10
2017,09,16,04,04,10.10
2017,09,16,04,05,10.10
2017,09,16,04,06,10.10
2017,09,16,04,07,10.10
2017,09,16,04,08,10.10
2017,09,16,04,09,10.10
2017,09,16,04,10,10.10
2017,09,16,04,11,10.10
2017,09,16,04,12,10.10
2017,09,16,04,13,10.10
2017,09,16,04,14,10.10
2017,09,16,04,15,10.10
2017,09,16,04,16,10.10
2017,09,16,04,17,10.10
2017,09,16,04,18,10.10
2017,09,16,04,19,10.10
2017,09,16,04,20,10.10
2017,09,16,04,21,10.10
2017,09,16,04,22,10.10
2017,09,16,04,23,10.00
2017,09,16,04,24,10.10
2017,09,16,04,25,10.00
2017,09,16,04,26,10.00
2017,09,16,04,27,10.10
2017,09,16,04,28,10.10
2017,09,16,04,29,10.10
2017,09,16,04,30,10.10
2017,09,16,04,31,10.10
2017,09,16,04,32,10.10
2017,09,16,04,33,10.20
2017,09,16,04,34,10.20
2017,09,16,04,35,10.20
2017,09,16,04,36,10.20
2017,09,16,04,37,10.10
2017,09,16,04,38,10.10
2017,09,16,04,39,10.10
2017,09,16,04,40,10.10
2017,09,16,04,41,10.10
2017,09,16,04,42,10.10
2017,09,16,04,43,10.10
2017,09,16,04,44,10.00
2017,09,16,04,45,10.00
2017,09,16,04,46,10.00
2017,09,16,04,47,10.00
2017,09,16,04,48,9.90
2017,09,16,04,49,9.90
2017,09,16,04,50,9.90
2017,09,16,04,51,9.90
2017,09,16,04,52,9.90
2017,09,16,04,53,9.90
2017,09,16,04,54,9.90
2017,09,16,04,55,9.90
2017,09,16,04,56,9.80
2017,09,16,04,57,9.80
2017,09,16,04,58,9.80
2017,09,16,04,59,9.80
2017,09,16,05,00,9.80
2017,09,16,05,01,9.80
2017,09,16,05,02,9.80
2017,09,16,05,03,9.80
2017,09,16,05,04,9.70
2017,09,16,05,05,9.70
2017,09,16,05,06,9.70
2017,09,16,05,07,9.70
2017,09,16,05,08,9.70
2017,09,16,05,09,9.70
2017,09,16,05,10,9.60
2017,09,16,05,11,9.60
2017,09,16,05,12,9.60
2017,09,16,05,13,9.50
2017,09,16,05,14,9.50
2017,09,16,05,15,9.40
2017,09,16,05,16,9.40
2017,09,16,05,17,9.40
2017,09,16,05,18,9.30
2017,09,16,05,19,9.30
2017,09,16,05,20,9.30
2017,09,16,05,21,9.30
2017,09,16,05,22,9.30
2017,09,16,05,23,9.20
2017,09,16,05,24,9.20
2017,09,16,05,25,9.20
2017,09,16,05,26,9.20
2017,09,16,05,27,9.10
2017,09,16,05,28,9.10
2017,09,16,05,29,9.10
2017,09,16,05,30,9.10
2017,09,16,05,31,9.00
2017,09,16,05,32,9.00
2017,09,16,05,33,9.00
2017,09,16,05,34,9.00
2017,09,16,05,35,9.00
2017,09,16,05,36,9.10
2017,09,16,05,37,9.00
2017,09,16,05,38,9.00
2017,09,16,05,39,9.00
2017,09,16,05,40,9.00
2017,09,16,05,41,9.00
2017,09,16,05,42,9.00
2017,09,16,05,43,9.00
2017,09,16,05,44,9.10
2017,09,16,05,45,9.10
2017,09,16,05,46,9.10
2017,09,16,05,47,9.20
2017,09,16,05,48,9.20
2017,09,16,05,49,9.20
2017,09,16,05,50,9.30
2017,09,16,05,51,9.20
2017,09,16,05,52,9.20
2017,09,16,05,53,9.20
2017,09,16,05,54,9.20
2017,09,16,05,55,9.20
2017,09,16,05,56,9.20
2017,09,16,05,57,9.10
2017,09,16,05,58,9.20
2017,09,16,05,59,9.20
2017,09,16,06,00,9.20
2017,09,16,06,01,9.20
2017,09,16,06,02,9.20
2017,09,16,06,03,9.20
2017,09,16,06,04,9.20
2017,09,16,06,05,9.20
2017,09,16,06,06,9.20
2017,09,16,06,07,9.10
2017,09,16,06,08,9.10
2017,09,16,06,09,9.10
2017,09,16,06,10,9.10
2017,09,16,06,11,9.10
2017,09,16,06,12,9.10
2017,09,16,06,13,9.00
2017,09,16,06,14,9.00
2017,09,16,06,15,8.90
2017,09,16,06,16,8.90
2017,09,16,06,17,8.90
2017,09,16,06,18,8.80
2017,09,16,06,19,8.80
2017,09,16,06,20,8.80
2017,09,16,06,21,8.70
2017,09,16,06,22,8.70
2017,09,16,06,23,8.70
2017,09,16,06,24,8.60
2017,09,16,06,25,8.60
2017,09,16,06,26,8.60
2017,09,16,06,27,8.60
2017,09,16,06,28,8.70
2017,09,16,06,29,8.70
2017,09,16,06,30,8.70
2017,09,16,06,31,8.70
2017,09,16,06,32,8.70
2017,09,16,06,33,8.70
2017,09,16,06,34,8.70
2017,09,16,06,35,8.70
2017,09,16,06,36,8.70
2017,09,16,06,37,8.70
2017,09,16,06,38,8.70
2017,09,16,06,39,8.70
2017,09,16,06,40,8.70
2017,09,16,06,41,8.70
2017,09,16,06,42,8.60
2017,09,16,06,43,8.60
2017,09,16,06,44,8.60
2017,09,16,06,45,8.60
2017,09,16,06,46,8.60
2017,09,16,06,47,8.60
2017,09,16,06,48,8.60
2017,09,16,06,49,8.60
2017,09,16,06,50,8.60
2017,09,16,06,51,8.60
2017,09,16,06,52,8.60
2017,09,16,06,53,8.60
2017,09,16,06,54,8.60
2017,09,16,06,55,8.50
2017,09,16,06,56,8.50
2017,09,16,06,57,8.50
2017,09,16,06,58,8.50
2017,09,16,06,59,8.50
2017,09,16,07,00,8.50
2017,09,16,07,01,8.50
2017,09,16,07,02,8.50
2017,09,16,07,03,8.50
2017,09,16,07,04,8.50
2017,09,16,07,05,8.50
2017,09,16,07,06,8.50
2017,09,16,07,07,8.50
2017,09,16,07,08,8.60
2017,09,16,07,09,8.60
2017,09,16,07,10,8.60
2017,09,16,07,11,8.60
2017,09,16,07,12,8.60
2017,09,16,07,13,8.60
2017,09,16,07,14,8.60
2017,09,16,07,15,8.60
2017,09,16,07,16,8.60
2017,09,16,07,17,8.60
2017,09,16,07,18,8.60
2017,09,16,07,19,8.60
2017,09,16,07,20,8.60
2017,09,16,07,21,8.60
2017,09,16,07,22,8.60
2017,09,16,07,23,8.60
2017,09,16,07,24,8.50
2017,09,16,07,25,8.60
2017,09,16,07,26,8.60
2017,09,16,07,27,8.50
2017,09,16,07,28,8.50
2017,09,16,07,29,8.50
2017,09,16,07,30,8.50
2017,09,16,07,31,8.50
2017,09,16,07,32,8.50
2017,09,16,07,33,8.50
2017,09,16,07,34,8.50
2017,09,16,07,35,8.50
2017,09,16,07,36,8.50
2017,09,16,07,37,8.50
2017,09,16,07,38,8.50
2017,09,16,07,39,8.50
2017,09,16,07,40,8.40
2017,09,16,07,41,8.40
2017,09,16,07,42,8.40
2017,09,16,07,43,8.40
2017,09,16,07,44,8.40
2017,09,16,07,45,8.40
2017,09,16,07,46,8.40
2017,09,16,07,47,8.30
2017,09,16,07,48,8.30
2017,09,16,07,49,8.40
2017,09,16,07,50,8.40
2017,09,16,07,51,8.40
2017,09,16,07,52,8.40
2017,09,16,07,53,8.40
2017,09,16,07,54,8.40
2017,09,16,07,55,8.40
2017,09,16,07,56,8.40
2017,09,16,07,57,8.40
2017,09,16,07,58,8.50
2017,09,16,07,59,8.50
2017,09,16,08,00,8.50
2017,09,16,08,01,8.50
2017,09,16,08,02,8.60
2017,09,16,08,03,8.60
2017,09,16,08,04,8.60
2017,09,16,08,05,8.60
2017,09,16,08,06,8.60
2017,09,16,08,07,8.60
2017,09,16,08,08,8.60
2017,09,16,08,09,8.70
2017,09,16,08,10,8.70
2017,09,16,08,11,8.70
2017,09,16,08,12,8.70
2017,09,16,08,13,8.70
2017,09,16,08,14,8.70
2017,09,16,08,15,8.70
2017,09,16,08,16,8.70
2017,09,16,08,17,8.70
2017,09,16,08,18,8.70
2017,09,16,08,19,8.70
2017,09,16,08,20,8.70
2017,09,16,08,21,8.80
2017,09,16,08,22,8.80
2017,09,16,08,23,8.80
2017,09,16,08,24,8.80
2017,09,16,08,25,8.90
2017,09,16,08,26,8.90
2017,09,16,08,27,9.00
2017,09,16,08,28,9.00
2017,09,16,08,29,9.10
2017,09,16,08,30,9.20
2017,09,16,08,31,9.20
2017,09,16,08,32,9.30
2017,09,16,08,33,9.40
2017,09,16,08,34,9.40
2017,09,16,08,35,9.50
2017,09,16,08,36,9.60
2017,09,16,08,37,9.60
2017,09,16,08,38,9.70
2017,09,16,08,39,9.70
2017,09,16,08,40,9.80
2017,09,16,08,41,9.80
2017,09,16,08,42,9.90
2017,09,16,08,43,10.00
2017,09,16,08,44,10.00
2017,09,16,08,45,10.10
2017,09,16,08,46,10.10
2017,09,16,08,47,10.20
2017,09,16,08,48,10.20
2017,09,16,08,49,10.30
2017,09,16,08,50,10.30
2017,09,16,08,51,10.30
2017,09,16,08,52,10.40
2017,09,16,08,53,10.40
2017,09,16,08,54,10.50
2017,09,16,08,55,10.60
2017,09,16,08,56,10.70
2017,09,16,08,57,10.70
2017,09,16,08,58,10.80
2017,09,16,08,59,10.90
2017,09,16,09,00,10.90
2017,09,16,09,01,11.00
2017,09,16,09,02,11.00
2017,09,16,09,03,11.10
2017,09,16,09,04,11.10
2017,09,16,09,05,11.10
2017,09,16,09,06,11.20
2017,09,16,09,07,11.20
2017,09,16,09,08,11.20
2017,09,16,09,09,11.30
2017,09,16,09,10,11.30
2017,09,16,09,11,11.30
2017,09,16,09,12,11.30
2017,09,16,09,13,11.40
2017,09,16,09,14,11.40
2017,09,16,09,15,11.50
2017,09,16,09,16,11.50
2017,09,16,09,17,11.60
2017,09,16,09,18,11.60
2017,09,16,09,19,11.60
2017,09,16,09,20,11.70
2017,09,16,09,21,11.70
2017,09,16,09,22,11.80
2017,09,16,09,23,11.80
2017,09,16,09,24,11.90
2017,09,16,09,25,12.00
2017,09,16,09,26,12.00
2017,09,16,09,27,12.10
2017,09,16,09,28,12.20
2017,09,16,09,29,12.30
2017,09,16,09,30,12.30
2017,09,16,09,31,12.40
2017,09,16,09,32,12.50
2017,09,16,09,33,12.60
2017,09,16,09,34,12.70
2017,09,16,09,35,12.80
2017,09,16,09,36,13.00
2017,09,16,09,37,13.10
2017,09,16,09,38,13.30
2017,09,16,09,39,13.40
2017,09,16,09,40,13.50
2017,09,16,09,41,13.50
2017,09,16,09,42,13.60
2017,09,16,09,43,13.60
2017,09,16,09,44,13.60
2017,09,16,09,45,13.70
2017,09,16,09,46,13.80
2017,09,16,09,47,13.80
2017,09,16,09,48,13.90
2017,09,16,09,49,14.00
2017,09,16,09,50,14.10
2017,09,16,09,51,14.10
2017,09,16,09,52,14.20
2017,09,16,09,53,14.20
2017,09,16,09,54,14.30
2017,09,16,09,55,14.30
2017,09,16,09,56,14.40
2017,09,16,09,57,14.50
2017,09,16,09,58,14.60
2017,09,16,09,59,14.60
2017,09,16,10,00,14.70
2017,09,16,10,01,14.70
2017,09,16,10,02,14.80
2017,09,16,10,03,14.80
2017,09,16,10,04,14.90
2017,09,16,10,05,15.00
2017,09,16,10,06,15.10
2017,09,16,10,07,15.20
2017,09,16,10,08,15.20
2017,09,16,10,09,15.30
2017,09,16,10,10,15.40
2017,09,16,10,11,15.40
2017,09,16,10,12,15.40
2017,09,16,10,13,15.50
2017,09,16,10,14,15.60
2017,09,16,10,15,15.60
2017,09,16,10,16,15.70
2017,09,16,10,17,15.70
2017,09,16,10,18,15.60
2017,09,16,10,19,15.60
2017,09,16,10,20,15.60
2017,09,16,10,21,15.60
2017,09,16,10,22,15.60
2017,09,16,10,23,15.70
2017,09,16,10,24,15.80
2017,09,16,10,25,15.90
2017,09,16,10,26,15.90
2017,09,16,10,27,15.90
2017,09,16,10,28,15.90
2017,09,16,10,29,15.90
2017,09,16,10,30,15.80
2017,09,16,10,31,15.80
2017,09,16,10,32,15.80
2017,09,16,10,33,15.80
2017,09,16,10,34,15.80
2017,09,16,10,35,15.80
2017,09,16,10,36,15.80
2017,09,16,10,37,15.80
2017,09,16,10,38,15.90
2017,09,16,10,39,15.90
2017,09,16,10,40,15.90
2017,09,16,10,41,15.90
2017,09,16,10,42,16.00
2017,09,16,10,43,16.00
2017,09,16,10,44,16.00
2017,09,16,10,45,16.00
2017,09,16,10,46,16.00
2017,09,16,10,47,16.10
2017,09,16,10,48,16.10
2017,09,16,10,49,16.10
2017,09,16,10,50,16.20
2017,09,16,10,51,16.20
2017,09,16,10,52,16.30
2017,09,16,10,53,16.40
2017,09,16,10,54,16.50
2017,09,16,10,55,16.60
2017,09,16,10,56,16.70
2017,09,16,10,57,16.80
2017,09,16,10,58,16.90
2017,09,16,10,59,17.00
2017,09,16,11,00,17.10
2017,09,16,11,01,17.20
2017,09,16,11,02,17.30
2017,09,16,11,03,17.30
2017,09,16,11,04,17.40
2017,09,16,11,05,17.40
2017,09,16,11,06,17.40
2017,09,16,11,07,17.40
2017,09,16,11,08,17.40
2017,09,16,11,09,17.50
2017,09,16,11,10,17.60
2017,09,16,11,11,17.60
2017,09,16,11,12,17.70
2017,09,16,11,13,17.80
2017,09,16,11,14,17.80
2017,09,16,11,15,17.90
2017,09,16,11,16,18.00
2017,09,16,11,17,18.00
2017,09,16,11,18,18.10
2017,09,16,11,19,18.20
2017,09,16,11,20,18.30
2017,09,16,11,21,18.30
2017,09,16,11,22,18.40
2017,09,16,11,23,18.50
2017,09,16,11,24,18.60
2017,09,16,11,25,18.70
2017,09,16,11,26,18.70
2017,09,16,11,27,18.70
2017,09,16,11,28,18.70
2017,09,16,11,29,18.70
2017,09,16,11,30,18.60
2017,09,16,11,31,18.60
2017,09,16,11,32,18.60
2017,09,16,11,33,18.70
2017,09,16,11,34,18.80
2017,09,16,11,35,18.80
2017,09,16,11,36,18.90
2017,09,16,11,37,19.00
2017,09,16,11,38,19.20
2017,09,16,11,39,19.30
2017,09,16,11,40,19.30
2017,09,16,11,41,19.40
2017,09,16,11,42,19.50
2017,09,16,11,43,19.60
2017,09,16,11,44,19.80
2017,09,16,11,45,19.90
2017,09,16,11,46,20.00
2017,09,16,11,47,20.10
2017,09,16,11,48,20.20
2017,09,16,11,49,20.20
2017,09,16,11,50,20.30
2017,09,16,11,51,20.40
2017,09,16,11,52,20.40
2017,09,16,11,53,20.40
2017,09,16,11,54,20.50
2017,09,16,11,55,20.60
2017,09,16,11,56,20.60
2017,09,16,11,57,20.70
2017,09,16,11,58,20.80
2017,09,16,11,59,20.90
2017,09,16,12,00,21.00
2017,09,16,12,01,21.10
2017,09,16,12,02,21.10
2017,09,16,12,03,21.10
2017,09,16,12,04,21.20
2017,09,16,12,05,21.20
2017,09,16,12,06,21.20
2017,09,16,12,07,21.30
2017,09,16,12,08,21.30
2017,09,16,12,09,21.30
2017,09,16,12,10,21.40
2017,09,16,12,11,21.40
2017,09,16,12,12,21.40
2017,09,16,12,13,21.30
2017,09,16,12,14,21.20
2017,09,16,12,15,21.20
2017,09,16,12,16,21.20
2017,09,16,12,17,21.20
2017,09,16,12,18,21.20
2017,09,16,12,19,21.30
2017,09,16,12,20,21.40
2017,09,16,12,21,21.40
2017,09,16,12,22,21.50
2017,09,16,12,23,21.50
2017,09,16,12,24,21.50
2017,09,16,12,25,21.60
2017,09,16,12,26,21.70
2017,09,16,12,27,21.70
2017,09,16,12,28,21.80
2017,09,16,12,29,21.80
2017,09,16,12,30,21.80
2017,09,16,12,31,21.80
2017,09,16,12,32,21.80
2017,09,16,12,33,21.80
2017,09,16,12,34,21.90
2017,09,16,12,35,21.90
2017,09,16,12,36,22.00
2017,09,16,12,37,22.10
2017,09,16,12,38,22.10
2017,09,16,12,39,22.10
2017,09,16,12,40,22.10
2017,09,16,12,41,22.10
2017,09,16,12,42,22.20
2017,09,16,12,43,22.20
2017,09,16,12,44,22.30
2017,09,16,12,45,22.30
2017,09,16,12,46,22.40
2017,09,16,12,47,22.40
2017,09,16,12,48,22.40
2017,09,16,12,49,22.50
2017,09,16,12,50,22.50
2017,09,16,12,51,22.60
2017,09,16,12,52,22.60
2017,09,16,12,53,22.70
2017,09,16,12,54,22.70
2017,09,16,12,55,22.80
2017,09,16,12,56,22.90
2017,09,16,12,57,22.90
2017,09,16,12,58,23.00
2017,09,16,12,59,23.10
2017,09,16,13,00,23.20
2017,09,16,13,01,23.30
2017,09,16,13,02,23.40
2017,09,16,13,03,23.50
2017,09,16,13,04,23.50
2017,09,16,13,05,23.60
2017,09,16,13,06,23.70
2017,09,16,13,07,23.70
2017,09,16,13,08,23.80
2017,09,16,13,09,23.90
2017,09,16,13,10,23.90
2017,09,16,13,11,23.80
2017,09,16,13,12,23.80
2017,09,16,13,13,23.80
2017,09,16,13,14,23.80
2017,09,16,13,15,23.80
2017,09,16,13,16,23.70
2017,09,16,13,17,23.70
2017,09,16,13,18,23.60
2017,09,16,13,19,23.60
2017,09,16,13,20,23.70
2017,09,16,13,21,23.70
2017,09,16,13,22,23.70
2017,09,16,13,23,23.80
2017,09,16,13,24,23.80
2017,09,16,13,25,23.90
2017,09,16,13,26,24.00
2017,09,16,13,27,24.10
2017,09,16,13,28,24.20
2017,09,16,13,29,24.30
2017,09,16,13,30,24.40
2017,09,16,13,31,24.40
2017,09,16,13,32,24.40
2017,09,16,13,33,24.50
2017,09,16,13,34,24.50
2017,09,16,13,35,24.60
2017,09,16,13,36,24.70
2017,09,16,13,37,24.70
2017,09,16,13,38,24.80
2017,09,16,13,39,24.80
2017,09,16,13,40,24.80
2017,09,16,13,41,24.70
2017,09,16,13,42,24.70
2017,09,16,13,43,24.70
2017,09,16,13,44,24.80
2017,09,16,13,45,24.90
2017,09,16,13,46,24.90
2017,09,16,13,47,25.00
2017,09,16,13,48,25.00
2017,09,16,13,49,25.20
2017,09,16,13,50,25.20
2017,09,16,13,51,25.30
2017,09,16,13,52,25.20
2017,09,16,13,53,25.20
2017,09,16,13,54,25.10
2017,09,16,13,55,25.00
2017,09,16,13,56,25.00
2017,09,16,13,57,24.90
2017,09,16,13,58,25.00
2017,09,16,13,59,25.00
2017,09,16,14,00,25.00
2017,09,16,14,01,25.00
2017,09,16,14,02,25.00
2017,09,16,14,03,25.00
2017,09,16,14,04,24.90
2017,09,16,14,05,24.90
2017,09,16,14,06,24.90
2017,09,16,14,07,24.90
2017,09,16,14,08,24.90
2017,09,16,14,09,25.00
2017,09,16,14,10,25.00
2017,09,16,14,11,25.10
2017,09,16,14,12,25.10
2017,09,16,14,13,25.10
2017,09,16,14,14,25.00
2017,09,16,14,15,25.00
2017,09,16,14,16,25.00
2017,09,16,14,17,25.10
2017,09,16,14,18,25.20
2017,09,16,14,19,25.30
2017,09,16,14,20,25.30
2017,09,16,14,21,25.20
2017,09,16,14,22,25.20
2017,09,16,14,23,25.20
2017,09,16,14,24,25.10
2017,09,16,14,25,25.10
2017,09,16,14,26,25.00
2017,09,16,14,27,24.90
2017,09,16,14,28,24.90
2017,09,16,14,29,24.90
2017,09,16,14,30,25.00
2017,09,16,14,31,25.00
2017,09,16,14,32,25.10
2017,09,16,14,33,25.20
2017,09,16,14,34,25.10
2017,09,16,14,35,25.10
2017,09,16,14,36,25.10
2017,09,16,14,37,25.10
2017,09,16,14,38,25.20
2017,09,16,14,39,25.20
2017,09,16,14,40,25.20
2017,09,16,14,41,25.30
2017,09,16,14,42,25.40
2017,09,16,14,43,25.50
2017,09,16,14,44,25.60
2017,09,16,14,45,25.70
2017,09,16,14,46,25.70
2017,09,16,14,47,25.80
2017,09,16,14,48,25.80
2017,09,16,14,49,25.80
2017,09,16,14,50,25.80
2017,09,16,14,51,25.70
2017,09,16,14,52,25.70
2017,09,16,14,53,25.70
2017,09,16,14,54,25.80
2017,09,16,14,55,25.70
2017,09,16,14,56,25.70
2017,09,16,14,57,25.70
2017,09,16,14,58,25.70
2017,09,16,14,59,25.70
2017,09,16,15,00,25.70
2017,09,16,15,01,25.70
2017,09,16,15,02,25.70
2017,09,16,15,03,25.70
2017,09,16,15,04,25.80
2017,09,16,15,05,25.80
2017,09,16,15,06,25.90
2017,09,16,15,07,25.90
2017,09,16,15,08,25.90
2017,09,16,15,09,25.90
2017,09,16,15,10,25.80
2017,09,16,15,11,25.80
2017,09,16,15,12,25.80
2017,09,16,15,13,25.80
2017,09,16,15,14,25.80
2017,09,16,15,15,25.70
2017,09,16,15,16,25.70
2017,09,16,15,17,25.70
2017,09,16,15,18,25.70
2017,09,16,15,19,25.80
2017,09,16,15,20,25.80
2017,09,16,15,21,25.90
2017,09,16,15,22,26.00
2017,09,16,15,23,26.10
2017,09,16,15,24,26.20
2017,09,16,15,25,26.30
2017,09,16,15,26,26.30
2017,09,16,15,27,26.30
2017,09,16,15,28,26.30
2017,09,16,15,29,26.20
2017,09,16,15,30,26.20
2017,09,16,15,31,26.20
2017,09,16,15,32,26.20
2017,09,16,15,33,26.20
2017,09,16,15,34,26.20
2017,09,16,15,35,26.10
2017,09,16,15,36,26.10
2017,09,16,15,37,26.00
2017,09,16,15,38,26.00
2017,09,16,15,39,26.00
2017,09,16,15,40,26.00
2017,09,16,15,41,26.10
2017,09,16,15,42,26.20
2017,09,16,15,43,26.30
2017,09,16,15,44,26.40
2017,09,16,15,45,26.30
2017,09,16,15,46,26.30
2017,09,16,15,47,26.30
2017,09,16,15,48,26.20
2017,09,16,15,49,26.10
2017,09,16,15,50,26.10
2017,09,16,15,51,26.00
2017,09,16,15,52,26.00
2017,09,16,15,53,26.00
2017,09,16,15,54,26.00
2017,09,16,15,55,26.00
2017,09,16,15,56,26.00
2017,09,16,15,57,26.00
2017,09,16,15,58,25.90
2017,09,16,15,59,25.80
2017,09,16,16,00,25.80
2017,09,16,16,01,25.80
2017,09,16,16,02,25.80
2017,09,16,16,03,25.80
2017,09,16,16,04,25.80
2017,09,16,16,05,25.90
2017,09,16,16,06,25.90
2017,09,16,16,07,26.00
2017,09,16,16,08,26.00
2017,09,16,16,09,26.00
2017,09,16,16,10,26.00
2017,09,16,16,11,25.90
2017,09,16,16,12,25.90
2017,09,16,16,13,25.90
2017,09,16,16,14,26.00
2017,09,16,16,15,26.00
2017,09,16,16,16,26.10
2017,09,16,16,17,26.20
2017,09,16,16,18,26.30
2017,09,16,16,19,26.30
2017,09,16,16,20,26.20
2017,09,16,16,21,26.20
2017,09,16,16,22,26.10
2017,09,16,16,23,26.00
2017,09,16,16,24,25.90
2017,09,16,16,25,25.80
2017,09,16,16,26,25.80
2017,09,16,16,27,25.90
2017,09,16,16,28,25.80
2017,09,16,16,29,25.80
2017,09,16,16,30,25.80
2017,09,16,16,31,25.80
2017,09,16,16,32,25.80
2017,09,16,16,33,25.80
2017,09,16,16,34,25.80
2017,09,16,16,35,25.80
2017,09,16,16,36,25.70
2017,09,16,16,37,25.70
2017,09,16,16,38,25.70
2017,09,16,16,39,25.70
2017,09,16,16,40,25.60
2017,09,16,16,41,25.40
2017,09,16,16,42,25.40
2017,09,16,16,43,25.30
2017,09,16,16,44,25.20
2017,09,16,16,45,25.10
2017,09,16,16,46,25.10
2017,09,16,16,47,25.10
2017,09,16,16,48,25.10
2017,09,16,16,49,25.10
2017,09,16,16,50,25.10
2017,09,16,16,51,25.10
2017,09,16,16,52,25.00
2017,09,16,16,53,25.00
2017,09,16,16,54,25.00
2017,09,16,16,55,25.10
2017,09,16,16,56,25.10
2017,09,16,16,57,25.10
2017,09,16,16,58,25.10
2017,09,16,16,59,25.10
2017,09,16,17,00,25.10
2017,09,16,17,01,25.10
2017,09,16,17,02,25.10
2017,09,16,17,03,25.10
2017,09,16,17,04,25.10
2017,09,16,17,05,25.00
2017,09,16,17,06,25.00
2017,09,16,17,07,25.10
2017,09,16,17,08,25.10
2017,09,16,17,09,25.10
2017,09,16,17,10,25.00
2017,09,16,17,11,25.00
2017,09,16,17,12,25.00
2017,09,16,17,13,25.00
2017,09,16,17,14,25.00
2017,09,16,17,15,25.00
2017,09,16,17,16,24.90
2017,09,16,17,17,24.90
2017,09,16,17,18,24.90
2017,09,16,17,19,24.80
2017,09,16,17,20,24.80
2017,09,16,17,21,24.80
2017,09,16,17,22,24.80
2017,09,16,17,23,24.80
2017,09,16,17,24,24.90
2017,09,16,17,25,24.80
2017,09,16,17,26,24.80
2017,09,16,17,27,24.70
2017,09,16,17,28,24.70
2017,09,16,17,29,24.60